Weather in Brzeg

Poland     50°51′19″N   17°28′27″E
temp.,
°C
wind,
m/s
gust,
m/s
humid.,
%
clouds,
%
prec.,
mm/h
press.,
hPa
HPBL,
m
17 may, mon
mon1723:00+9s33822 0.1 100525
02:00+9s228250 0.2 100425
05:00+8sse239499 0.6 100335
08:00+12sw2485100 0.6 1004182
11:00+15ssw2273100 0.4 1004499
14:00+15sw2273100 2.1 1004698
17:00+12nw4891100 2.4 1005304
20:00+11wnw2493100 3.9 1006110
18 may, tue
tue1823:00+10w51191100 0.2 1007389
02:00+10wnw61389100 0.3 1008568
05:00+9w51290100 0.0 1008518
08:00+11wnw51183100 0.0 1010790
11:00+12w61082100 0.7 10101101
14:00+13wnw697992 1.6 10111111
17:00+16nw68704 0.4 10101427
20:00+12w378487 0.8 1011129
19 may, wed
wed1923:00+8w411935 0.0 1012242
02:00+7w4109319 0.0 1014197
05:00+7wnw3693100 0.0 1013133
08:00+10w4880100 0.0 1014680
11:00+12w5671100 0.3 10151118
14:00+11wnw688090 0.6 1015934
17:00+12nw7978100 0.2 10151042
20:00+10nw5986100 0.3 1016462
20 may, thu
thu2023:00+8wnw4886100 0.0 1016295
02:00+8wnw5984100 0.0 1016360
05:00+8wnw4983100 0.0 1017366
08:00+9nw5882100 0.0 1018429
11:00+13nw677389 0.3 10181188
14:00+13nw6880100 1.6 1018876
17:00+13nw798236 1.6 1018962
20:00+10wnw49865 2.3 1019203
21 may, fri
fri2123:00+7wnw49959 0.1 1021183
02:00+5w410945 0.1 1022217
05:00+4w37925 0.0 1022126
08:00+9wnw588243 0.0 1021617
11:00+13wnw576792 0.4 10201582
14:00+12wsw357197 0.6 1019443
17:00+15wsw3563100 0.2 10171294
20:00+12sse3579100 0.2 101594